This is the latest recevied weather packets stored in our database for station/object NE8U. If no packets are shown the sender has not sent any weather packets the latest 10 day(s).
| Time | Temp. | Humidity | Pressure | Rain* | Wind** | Luminosity | Snow |
|---|---|---|---|---|---|---|---|
| 1778132573 | 17.78° C | 35% | 1016.8 hPa | 0 mm | - | 0 W/m² | - |
| 1778132271 | 17.78° C | 35% | 1016.7 hPa | 0 mm | - | 0 W/m² | - |
| 1778131968 | 18.33° C | 35% | 1016.6 hPa | 0 mm | - | 0 W/m² | - |
| 1778131667 | 18.33° C | 34% | 1016.5 hPa | 0 mm | - | 0 W/m² | - |
| 1778131363 | 18.33° C | 34% | 1016.8 hPa | 0 mm | - | 0 W/m² | - |
| 1778131061 | 19.44° C | 31% | 1016.8 hPa | 0 mm | - | 0 W/m² | - |
| 1778130758 | 18.89° C | 32% | 1016.5 hPa | 0 mm | - | 0 W/m² | - |
| 1778130454 | 18.89° C | 32% | 1016.6 hPa | 0 mm | - | 0 W/m² | - |
| 1778130152 | 18.89° C | 32% | 1016.4 hPa | 0 mm | - | 0 W/m² | - |
| 1778129848 | 18.89° C | 31% | 1016.5 hPa | 0 mm | - | 0 W/m² | - |
| 1778129544 | 19.44° C | 31% | 1016.4 hPa | 0 mm | - | 0 W/m² | - |
| 1778129242 | 19.44° C | 30% | 1016.4 hPa | 0 mm | - | 0 W/m² | - |
| 1778128938 | 20° C | 29% | 1016.4 hPa | 0 mm | - | 0 W/m² | - |
| 1778128634 | 20° C | 28% | 1016.4 hPa | 0 mm | - | 0 W/m² | - |
| 1778128331 | 20.56° C | 28% | 1016.3 hPa | 0 mm | - | 0 W/m² | - |
| 1778128028 | 20.56° C | 27% | 1016.3 hPa | 0 mm | - | 0 W/m² | - |
| 1778127723 | 20.56° C | 27% | 1016.3 hPa | 0 mm | - | 0 W/m² | - |
| 1778127421 | 20.56° C | 26% | 1016.4 hPa | 0 mm | - | 0 W/m² | - |
| 1778127116 | 21.11° C | 26% | 1016.3 hPa | 0 mm | - | 0 W/m² | - |
| 1778126814 | 20.56° C | 26% | 1016.2 hPa | 0 mm | - | 0 W/m² | - |
| 1778126510 | 20.56° C | 26% | 1016.2 hPa | 0 mm | - | 0 W/m² | - |
| 1778126206 | 20° C | 28% | 1016.2 hPa | 0 mm | - | 0 W/m² | - |
| 1778125902 | 20° C | 29% | 1016.3 hPa | 0 mm | - | 0 W/m² | - |
| 1778125599 | 20° C | 28% | 1016 hPa | 0 mm | - | 0 W/m² | - |
| 1778125297 | 20.56° C | 27% | 1016 hPa | 0 mm | - | 0 W/m² | - |
* Rain latest hour (hover to see other rain measurements)
** Current wind speed in m/s (hover to see current wind gust speed)